THOR AGENA B DEB, 1951

Orbit data source: Space-Track

THOR AGENA B DEB, 1951 is space debris in LEO originally from a launch on Mon, 29 Nov 1965 UTC launched from the Air Force Western Test Range (AFWTR). Debris objects in space refer to the collection of defunct objects orbiting the Earth. Examples of debris include non-operational satellites, rocket bodies, and fragments generated from explosions, collisions, or faulty payload assembly.

Loading next visibility...
Identifier
1951, 1965-098G
Orbit
LEO
Last TLE update
1 day ago
Origin
Manufacturer
Unknown
Mission
Spacecraft
Bus & Motor
Unknown
Mass
~1 kg wet, ~1 kg dry
Launch date (UTC)
1965-11-29 (60 years ago)
Launch vehicle
Unknown
Launch site
Air Force Western Test Range (AFWTR)
Object type
Payload
Rocket body
Debris
Shape & HBR
Half Cyl + Cone, 1.5 m
Radar Cross Section
0.531 m², Medium (>0.1 m² and < 1m²)

Expand to show TLE details & history

TLE from 1 day ago
0 THOR AGENA B DEB
1 01951U 65098G   25172.42344972  .00004620  00000-0  86503-3 0  9993
2 01951  79.6144 329.5354 0779039  71.1155 297.2759 13.54415560758729
Epoch: 2025-06-21T10:09Z
TLE epoch observation values (Epoch: 2025-06-21T10:09:46.055Z)
Latitude
-0.00002°
Longitude
-92.76914°
Altitude
830.893 km
Speed
7.551 km/s
True Right ascension
21h 58m 08s
True Declination
0° 00' 00"
Sunlit
Object was in partial shadow at epoch
Visualization orbit readout
Latitude
-42.60498°
Longitude
95.6655°
Altitude
1,588.454 km
Speed
6.823 km/s
Apparent Right ascension
11h 35m 02s
Apparent Declination
-42° 33' 52"
Sunlit
Object is in daylight
Visualization observer readout
Local Sidereal Time
00:51:10
Azimuth
106.696° ESE
Elevation
-75.477°
Doppler factor
1
Orbital elements
Apogee altitude
1,632.307 km
Perigee altitude
474.421 km
Semi-major axis
7,431.501 km
Eccentricity
0.0779
Inclination
79.6144°
RAAN
329.5354°
Arg. of periapsis
71.1155°
True anomaly
Unknown
Mean anomaly
297.2759°
Eccentric anomaly
Unknown
Mean motion
3.38788 °/min
Orbital period
106.26 mins
BSTAR
0.00086503
Loading maneuver chart data...
Loading SW <> Apogee altitude chart data...
Loading historical data...
Loading historical data...
Loading historical data...
Loading historical data...
Loading historical data...
Loading historical data...
Loading historical data...

THOR AGENA B DEB Visibility forecast

Observer location: undefined°, undefined°

Span
Click to sort rows by Start time (UTC) header in descending order
Start Az.
Max El. time (UTC)
Max El. Az.
Max El.
End time (UTC)
End Az.
10 mins2025-06-22 22:09:39.649Z347.645° N2025-06-22 22:13:39.649Z193.478° SSW44.782°2025-06-22 22:19:39.649Z171.531° S
4 mins2025-06-23 11:57:39.649Z247.735° W2025-06-23 11:59:39.649Z297.711° NW23.399°2025-06-23 12:01:39.649Z338.248° N
|